When you browse on this site, cookies collect data to enhance your experience and personalize the content and advertising you see.
Visit our Privacy Policy to learn more. By continuing to use the site, you agree to this use of cookies and data.
  • In Österreich
  • Länderverzeichnis
  • Für 7 Tage
  • Wassertemperatur
  • Wetterkarte
  • News
  • Widgets
  • user-avatar
    Anmelden

    Stündliche Wetter Zastavky

    Heute, 19 August, Montag

    Zeit Temperatur Niederschläge Wind Luftdruck Luftfeuchtigkeit
    00:00 +17°C° 0 mm 3 m/S 735 mmHg 75%
    01:00 +17°C° 0 mm 3 m/S 736 mmHg 76%
    02:00 +17°C° 0 mm 3 m/S 736 mmHg 76%
    03:00 +16°C° 0 mm 2 m/S 736 mmHg 76%
    04:00 +16°C° 0 mm 2 m/S 736 mmHg 75%
    05:00 +16°C° 0 mm 2 m/S 736 mmHg 74%
    06:00 +18°C° 0 mm 3 m/S 736 mmHg 71%
    07:00 +19°C° 0 mm 3 m/S 736 mmHg 69%
    08:00 +20°C° 0 mm 3 m/S 737 mmHg 66%
    09:00 +22°C° 0 mm 3 m/S 737 mmHg 62%
    10:00 +25°C° 0 mm 3 m/S 737 mmHg 58%
    11:00 +27°C° 0 mm 3 m/S 737 mmHg 54%
    12:00 +27°C° 0 mm 3 m/S 737 mmHg 52%
    13:00 +28°C° 0 mm 3 m/S 737 mmHg 50%
    14:00 +29°C° 0 mm 2 m/S 737 mmHg 48%
    15:00 +29°C° 0 mm 2 m/S 737 mmHg 50%
    16:00 +28°C° 0 mm 2 m/S 737 mmHg 52%
    17:00 +28°C° 0 mm 2 m/S 737 mmHg 53%
    18:00 +27°C° 0 mm 2 m/S 737 mmHg 57%
    19:00 +25°C° 0 mm 2 m/S 737 mmHg 61%
    20:00 +23°C° 0 mm 1 m/S 737 mmHg 64%
    21:00 +21°C° 0 mm 2 m/S 737 mmHg 64%
    22:00 +21°C° 0 mm 2 m/S 737 mmHg 64%
    23:00 +20°C° 0 mm 2 m/S 737 mmHg 64%

    Morgen, 20 August, Dienstag

    Zeit Temperatur Niederschläge Wind Luftdruck Luftfeuchtigkeit
    00:00 +20°C° 0 mm 2 m/S 737 mmHg 65%
    01:00 +19°C° 0 mm 2 m/S 737 mmHg 66%
    02:00 +19°C° 0 mm 2 m/S 737 mmHg 67%
    03:00 +18°C° 0 mm 2 m/S 738 mmHg 66%
    04:00 +18°C° 0 mm 2 m/S 738 mmHg 64%
    05:00 +18°C° 0 mm 2 m/S 738 mmHg 63%
    06:00 +19°C° 0 mm 2 m/S 738 mmHg 62%
    07:00 +21°C° 0 mm 2 m/S 738 mmHg 61%
    08:00 +23°C° 0 mm 2 m/S 739 mmHg 60%
    09:00 +25°C° 0 mm 2 m/S 739 mmHg 56%
    10:00 +26°C° 0 mm 2 m/S 739 mmHg 51%
    11:00 +28°C° 0 mm 2 m/S 739 mmHg 47%
    12:00 +29°C° 0 mm 2 m/S 739 mmHg 45%
    13:00 +29°C° 0 mm 2 m/S 739 mmHg 43%
    14:00 +30°C° 0 mm 2 m/S 739 mmHg 41%
    15:00 +30°C° 0 mm 1 m/S 739 mmHg 43%
    16:00 +30°C° 0 mm 1 m/S 739 mmHg 44%
    17:00 +30°C° 0 mm 1 m/S 739 mmHg 45%
    18:00 +28°C° 0 mm 1 m/S 739 mmHg 50%
    19:00 +26°C° 0 mm 1 m/S 739 mmHg 54%
    20:00 +24°C° 0 mm 1 m/S 739 mmHg 58%
    21:00 +23°C° 0 mm 1 m/S 739 mmHg 60%
    22:00 +23°C° 0 mm 1 m/S 739 mmHg 61%
    23:00 +21°C° 0 mm 2 m/S 739 mmHg 63%

    übermorgen, 21 August, Mittwoch

    Zeit Temperatur Niederschläge Wind Luftdruck Luftfeuchtigkeit
    00:00 +21°C° 0 mm 2 m/S 739 mmHg 63%
    01:00 +20°C° 0 mm 2 m/S 739 mmHg 62%
    02:00 +20°C° 0 mm 2 m/S 739 mmHg 62%
    03:00 +19°C° 0 mm 2 m/S 739 mmHg 62%
    04:00 +19°C° 0 mm 2 m/S 739 mmHg 62%
    05:00 +19°C° 0 mm 2 m/S 739 mmHg 62%
    06:00 +20°C° 0 mm 2 m/S 739 mmHg 61%
    07:00 +21°C° 0 mm 2 m/S 739 mmHg 61%
    08:00 +24°C° 0 mm 2 m/S 739 mmHg 61%
    09:00 +26°C° 0 mm 2 m/S 739 mmHg 56%
    10:00 +27°C° 0 mm 2 m/S 739 mmHg 51%
    11:00 +29°C° 0 mm 2 m/S 739 mmHg 46%
    12:00 +29°C° 0 mm 2 m/S 739 mmHg 45%
    13:00 +30°C° 0 mm 2 m/S 739 mmHg 44%
    14:00 +30°C° 0 mm 2 m/S 739 mmHg 42%
    15:00 +30°C° 0 mm 2 m/S 738 mmHg 43%
    16:00 +30°C° 0 mm 1 m/S 738 mmHg 45%
    17:00 +30°C° 0 mm 1 m/S 738 mmHg 46%
    18:00 +28°C° 0 mm 1 m/S 738 mmHg 49%
    19:00 +26°C° 0 mm 2 m/S 738 mmHg 53%
    20:00 +24°C° 0 mm 2 m/S 738 mmHg 57%
    21:00 +23°C° 0 mm 2 m/S 738 mmHg 58%
    22:00 +21°C° 0 mm 2 m/S 738 mmHg 60%
    23:00 +21°C° 0 mm 2 m/S 739 mmHg 61%

    22 August, Donnerstag

    Zeit Temperatur Niederschläge Wind Luftdruck Luftfeuchtigkeit
    00:00 +21°C° 0 mm 1 m/S 738 mmHg 63%
    01:00 +21°C° 0 mm 1 m/S 738 mmHg 65%
    02:00 +20°C° 0 mm 1 m/S 738 mmHg 68%
    03:00 +20°C° 0 mm 1 m/S 738 mmHg 68%
    04:00 +18°C° 0 mm 0 m/S 738 mmHg 69%
    05:00 +18°C° 0 mm 0 m/S 738 mmHg 70%
    06:00 +21°C° 0 mm 1 m/S 738 mmHg 68%
    07:00 +23°C° 0 mm 1 m/S 739 mmHg 65%
    08:00 +24°C° 0 mm 1 m/S 739 mmHg 63%
    09:00 +25°C° 0 mm 1 m/S 739 mmHg 60%
    10:00 +27°C° 0 mm 1 m/S 739 mmHg 57%
    11:00 +28°C° 0 mm 2 m/S 740 mmHg 54%
    12:00 +28°C° 0.1 mm 2 m/S 739 mmHg 53%
    13:00 +29°C° 0.1 mm 2 m/S 739 mmHg 51%
    14:00 +30°C° 0.1 mm 2 m/S 739 mmHg 50%
    15:00 +29°C° 0.1 mm 2 m/S 739 mmHg 52%
    16:00 +29°C° 0.1 mm 2 m/S 739 mmHg 55%
    17:00 +29°C° 0.1 mm 2 m/S 739 mmHg 57%
    18:00 +27°C° 0 mm 2 m/S 739 mmHg 64%
    19:00 +25°C° 0 mm 2 m/S 739 mmHg 71%
    20:00 +23°C° 0 mm 2 m/S 739 mmHg 78%
    21:00 +21°C° 0 mm 2 m/S 739 mmHg 83%
    22:00 +21°C° 0 mm 3 m/S 739 mmHg 88%
    23:00 +20°C° 0 mm 3 m/S 739 mmHg 93%

    23 August, Freitag

    Zeit Temperatur Niederschläge Wind Luftdruck Luftfeuchtigkeit
    00:00 +20°C° 0 mm 3 m/S 739 mmHg 94%
    01:00 +19°C° 0 mm 2 m/S 739 mmHg 96%
    02:00 +19°C° 0 mm 2 m/S 739 mmHg 97%
    03:00 +19°C° 0 mm 2 m/S 739 mmHg 98%
    04:00 +19°C° 0 mm 2 m/S 739 mmHg 98%
    05:00 +18°C° 0 mm 2 m/S 739 mmHg 98%
    06:00 +19°C° 0 mm 3 m/S 739 mmHg 96%
    07:00 +20°C° 0 mm 3 m/S 740 mmHg 94%
    08:00 +20°C° 0 mm 3 m/S 740 mmHg 92%
    09:00 +21°C° 0 mm 3 m/S 740 mmHg 89%
    10:00 +22°C° 0 mm 3 m/S 740 mmHg 85%
    11:00 +24°C° 0 mm 3 m/S 741 mmHg 81%
    12:00 +24°C° 0 mm 3 m/S 741 mmHg 78%
    13:00 +25°C° 0 mm 4 m/S 741 mmHg 74%
    14:00 +26°C° 0 mm 4 m/S 741 mmHg 71%
    15:00 +26°C° 0 mm 4 m/S 741 mmHg 71%
    16:00 +25°C° 0 mm 4 m/S 740 mmHg 72%
    17:00 +25°C° 0 mm 4 m/S 740 mmHg 73%
    18:00 +23°C° 0 mm 4 m/S 740 mmHg 77%
    19:00 +22°C° 0 mm 3 m/S 740 mmHg 80%
    20:00 +21°C° 0 mm 3 m/S 740 mmHg 84%
    21:00 +20°C° 0 mm 3 m/S 741 mmHg 85%
    22:00 +20°C° 0 mm 3 m/S 741 mmHg 85%
    23:00 +20°C° 0 mm 3 m/S 741 mmHg 86%

    24 August, Samstag

    Zeit Temperatur Niederschläge Wind Luftdruck Luftfeuchtigkeit
    00:00 +19°C° 0 mm 3 m/S 741 mmHg 86%
    01:00 +18°C° 0 mm 3 m/S 741 mmHg 87%
    02:00 +17°C° 0 mm 3 m/S 741 mmHg 87%
    03:00 +17°C° 0 mm 3 m/S 741 mmHg 90%
    04:00 +16°C° 0 mm 3 m/S 741 mmHg 93%
    05:00 +14°C° 0 mm 3 m/S 741 mmHg 95%
    06:00 +16°C° 0 mm 3 m/S 742 mmHg 90%
    07:00 +17°C° 0 mm 4 m/S 742 mmHg 84%
    08:00 +18°C° 0 mm 4 m/S 742 mmHg 79%
    09:00 +20°C° 0 mm 4 m/S 742 mmHg 72%
    10:00 +21°C° 0 mm 5 m/S 742 mmHg 66%
    11:00 +23°C° 0 mm 5 m/S 742 mmHg 60%
    12:00 +23°C° 0 mm 5 m/S 742 mmHg 57%
    13:00 +25°C° 0 mm 5 m/S 742 mmHg 55%
    14:00 +25°C° 0 mm 5 m/S 742 mmHg 53%
    15:00 +25°C° 0 mm 4 m/S 742 mmHg 55%
    16:00 +25°C° 0 mm 4 m/S 741 mmHg 56%
    17:00 +25°C° 0 mm 4 m/S 741 mmHg 58%
    18:00 +22°C° 0 mm 4 m/S 741 mmHg 61%
    19:00 +21°C° 0 mm 4 m/S 741 mmHg 64%
    20:00 +19°C° 0 mm 4 m/S 741 mmHg 67%
    21:00 +19°C° 0 mm 4 m/S 741 mmHg 64%
    22:00 +18°C° 0 mm 4 m/S 741 mmHg 62%
    23:00 +17°C° 0 mm 4 m/S 742 mmHg 59%
    Mehr zeigen